This is the latest recevied weather packets stored in our database for station/object KE8GJZ-1. If no packets are shown the sender has not sent any weather packets the latest 10 day(s).
| Time | Temp. | Humidity | Pressure | Rain* | Wind** | Luminosity | Snow |
|---|---|---|---|---|---|---|---|
| 1778008470 | 12.78° C | 65% | 1006.1 hPa | 0 mm | - | 133 W/m² | - |
| 1778008167 | 12.78° C | 65% | 1006.1 hPa | 0 mm | - | 140 W/m² | - |
| 1778007862 | 12.78° C | 68% | 1006.1 hPa | 0 mm | - | 129 W/m² | - |
| 1778007557 | 12.78° C | 65% | 1006.1 hPa | 0 mm | - | 163 W/m² | - |
| 1778007255 | 12.22° C | 64% | 1006.1 hPa | 0 mm | - | 137 W/m² | - |
| 1778006950 | 12.22° C | 65% | 1006.3 hPa | 0 mm | - | 121 W/m² | - |
| 1778006647 | 12.22° C | 65% | 1006.4 hPa | 0 mm | - | 127 W/m² | - |
| 1778006345 | 12.22° C | 67% | 1006 hPa | 0 mm | - | 118 W/m² | - |
| 1778006041 | 12.22° C | 65% | 1005.9 hPa | 0 mm | - | 104 W/m² | - |
| 1778005738 | 12.78° C | 68% | 1006.1 hPa | 0 mm | - | 98 W/m² | - |
| 1778005435 | 12.78° C | 68% | 1006 hPa | 0 mm | - | 101 W/m² | - |
| 1778005132 | 13.33° C | 68% | 1005.9 hPa | 0 mm | - | 132 W/m² | - |
| 1778004829 | 13.33° C | 72% | 1005.8 hPa | 0 mm | - | 223 W/m² | - |
| 1778004525 | 12.78° C | 75% | 1005.5 hPa | 0 mm | - | 257 W/m² | - |
| 1778004222 | 12.78° C | 78% | 1005.6 hPa | 0 mm | - | 244 W/m² | - |
| 1778003919 | 12.78° C | 78% | 1005.6 hPa | 0 mm | - | 155 W/m² | - |
| 1778003615 | 12.22° C | 80% | 1005.3 hPa | 0 mm | - | 210 W/m² | - |
| 1778003312 | 12.22° C | 81% | 1005.3 hPa | 0 mm | - | 182 W/m² | - |
| 1778003009 | 11.67° C | 81% | 1005.3 hPa | 0 mm | - | 225 W/m² | - |
| 1778002705 | 12.22° C | 82% | 1005.3 hPa | 0 mm | - | 333 W/m² | - |
| 1778002401 | 11.67° C | 83% | 1005.4 hPa | 0 mm | - | 502 W/m² | - |
| 1778002099 | 11.67° C | 84% | 1005.4 hPa | 0 mm | - | 380 W/m² | - |
| 1778001797 | 11.11° C | 89% | 1005.5 hPa | 0 mm | - | 546 W/m² | - |
| 1778001496 | 10° C | 90% | 1005.2 hPa | 0 mm | - | 453 W/m² | - |
| 1778001193 | 10° C | 90% | 1005.3 hPa | 0 mm | - | 262 W/m² | - |
* Rain latest hour (hover to see other rain measurements)
** Current wind speed in m/s (hover to see current wind gust speed)